Weather History for Fort Wayne, IN

Change the Weather History Date:

Saturday, June 23, 2012

  Actual Average Record
Temperature  
Mean Temperature 72 °F 72 °F  
Max Temperature 88 °F 83 °F 98 °F (1910)
Min Temperature 56 °F 62 °F 39 °F (1902)
Degree Days  
Heating Degree Days 0 0  
Month to date heating degree days 26 29  
Since 1 June heating degree days 26 29  
Since 1 July heating degree days 4880 6101  
Cooling Degree Days 7 8  
Month to date cooling degree days 167 125  
Year to date cooling degree days 320 182  
Since 1 June cooling degree days 167 125  
Growing Degree Days 22 (Base 50)    
Moisture  
Dew Point 53 °F    
Average Humidity 57    
Maximum Humidity 86    
Minimum Humidity 27    
Precipitation  
Precipitation 0.00 in 0.13 in 1.46 in (2010)
Month to date precipitation 0.25 3.29  
Year to date precipitation 10.60 18.09  
Snow  
Snow 0.00 in 0.00 in 0.00 in ()
Month to date snowfall 0.0 0.0  
Since 1 June snowfall 0.0  
Since 1 July snowfall 32.2 33.5  
Snow Depth 0.00 in    
Sea Level Pressure  
Sea Level Pressure 30.02 in    
Wind  
Wind Speed 3 mph (SW)    
Max Wind Speed 15 mph    
Max Gust Speed 18 mph    
Visibility 10 miles    
Events      
T = Trace of Precipitation, MM = Missing Value Source: NWS Daily Summary

Daily Weather History Graph

Daily Weather History Graph

Search for Another Location

Airport:

Trip Planner

Search our weather history database for the weather conditions in past years. The results will help you decide how hot, cold, wet, or windy it might be!

Date:

Astronomy

Jun. 23, 2012 Rise Set
Actual Time 6:09 AM EDT 9:16 PM EDT
Civil Twilight 5:35 AM EDT 9:50 PM EDT
Nautical Twilight 4:52 AM EDT 10:33 PM EDT
Astronomical Twilight 4:01 AM EDT 11:24 PM EDT
Moon 10:12 AM EDT (6/23) 11:42 PM EDT (6/23)
Length of Visible Light 16h 14m
Length of Day
15h 07m
Waxing Crescent, 16% of the Moon is Illuminated
Jun 23
Waxing Crescent
Jun 26
First Quarter
Jul 3
Full
Jul 10
Last Quarter
Jul 19
New

Hourly Weather History & Observations

Time (EDT) Temp. Heat Index Dew Point Humidity Pressure Visibility Wind Dir Wind Speed Gust Speed Precip Events Conditions
12:54 AM 66.0 °F - 52.0 °F 60% 29.99 in 10.0 mi Calm Calm - N/A   Clear
1:54 AM 64.0 °F - 52.0 °F 65% 29.99 in 10.0 mi Calm Calm - N/A   Clear
2:54 AM 60.1 °F - 52.0 °F 75% 30.00 in 10.0 mi Calm Calm - N/A   Clear
3:54 AM 57.9 °F - 53.1 °F 84% 30.01 in 10.0 mi Calm Calm - N/A   Clear
4:54 AM 57.0 °F - 53.1 °F 87% 30.01 in 10.0 mi Calm Calm - N/A   Clear
5:54 AM 57.0 °F - 54.0 °F 89% 30.01 in 10.0 mi Calm Calm - N/A   Scattered Clouds
6:54 AM 60.1 °F - 55.0 °F 83% 30.03 in 10.0 mi Calm Calm - N/A   Scattered Clouds
7:54 AM 66.0 °F - 57.0 °F 73% 30.02 in 10.0 mi Calm Calm - N/A   Scattered Clouds
8:54 AM 71.1 °F - 57.0 °F 61% 30.04 in 10.0 mi Calm Calm - N/A   Scattered Clouds
9:54 AM 75.9 °F - 55.9 °F 50% 30.04 in 10.0 mi SE 3.5 mph - N/A   Scattered Clouds
10:54 AM 79.0 °F - 55.0 °F 44% 30.04 in 10.0 mi Variable 4.6 mph - N/A   Scattered Clouds
11:54 AM 80.1 °F 79.9 °F 53.1 °F 39% 30.05 in 10.0 mi Calm Calm - N/A   Scattered Clouds
12:54 PM 82.9 °F 81.9 °F 54.0 °F 37% 30.05 in 10.0 mi East 4.6 mph - N/A   Mostly Cloudy
1:54 PM 86.0 °F 84.0 °F 53.1 °F 32% 30.04 in 10.0 mi Variable 4.6 mph - N/A   Mostly Cloudy
2:54 PM 87.1 °F - 51.1 °F 29% 30.03 in 10.0 mi NW 8.1 mph - N/A   Mostly Cloudy
3:54 PM 84.9 °F - 48.9 °F 29% 30.02 in 10.0 mi SW 3.5 mph - N/A   Mostly Cloudy
4:54 PM 86.0 °F - 48.9 °F 28% 30.02 in 10.0 mi West 3.5 mph - N/A   Mostly Cloudy
5:54 PM 84.9 °F - 52.0 °F 32% 30.01 in 10.0 mi SE 9.2 mph - N/A   Mostly Cloudy
6:54 PM 84.9 °F - 51.1 °F 31% 29.99 in 10.0 mi South 9.2 mph - N/A   Mostly Cloudy
7:54 PM 82.0 °F - 52.0 °F 35% 30.00 in 10.0 mi South 6.9 mph - N/A   Mostly Cloudy
8:54 PM 79.0 °F - 54.0 °F 42% 30.01 in 10.0 mi SW 4.6 mph - N/A   Mostly Cloudy
9:54 PM 73.9 °F - 55.9 °F 53% 30.02 in 10.0 mi West 4.6 mph - N/A   Mostly Cloudy
10:54 PM 73.9 °F - 57.0 °F 55% 30.03 in 10.0 mi WNW 3.5 mph - N/A   Mostly Cloudy
11:54 PM 72.0 °F - 55.9 °F 57% 30.03 in 10.0 mi NNW 4.6 mph - N/A   Mostly Cloudy